Skip Page Navigation
NASA JPL Caltech
NASA Logo - Jet Propulsion Laboratory + View the NASA Portal
+ Center for Near-Earth Object Studies
JPL Home Earth Solar System Stars & Galaxies Technology
JPL Solar System Dynamics
BODIES ORBITS EPHEMERIDES TOOLS PHYSICAL DATA DISCOVERY FAQ SITE MAP
IMPORTANT: The SSD Announcement email list is now available. Major changes are coming in the near future, including possible hostname and/or URL changes. To be notified of such changes, subscribe to this email list.

Please visit this page for more details.


JPL Small-Body Database Browser
Search: [ help ]  
18572 Rocher (1997 WQ22)
Classification: Main-belt Asteroid          SPK-ID: 2018572
Ephemeris | Orbit Diagram | Orbital Elements | Mission Design | Physical Parameters | Discovery Circumstances ]

[ show orbit diagram ]
Orbital Elements at Epoch 2458600.5 (2019-Apr-27.0) TDB
Reference: JPL 24 (heliocentric ecliptic J2000)
 Element Value Uncertainty (1-sigma)   Units 
e .1776573863289311 3.8583e-08  
a 2.261208849293726 7.7742e-09 au
q 1.859488395184353 8.6013e-08 au
i 1.823873392727572 3.7992e-06 deg
node 310.1237714459897 0.00012396 deg
peri 67.61201762286716 0.00012441 deg
M 183.251466583431 1.1853e-05 deg
tp 2459210.265374893771
(2020-Dec-26.76537489)
4.2232e-05 TDB
period 1241.965241343154
3.40
6.4049e-06
1.754e-08
d
yr
n .2898631845853183 1.4949e-09 deg/d
Q 2.662929303403099 9.1553e-09 au
  Orbit Determination Parameters
   # obs. used (total)      1419  
   data-arc span      9332 days (25.55 yr)  
   first obs. used      1993-10-13  
   last obs. used      2019-05-02  
   planetary ephem.      DE431  
   SB-pert. ephem.      SB431-N16  
   condition code      0  
   norm. resid. RMS      .54117  
   source      ORB  
   producer      Otto Matic  
   solution date      2019-May-30 02:37:03  

Additional Information
 Earth MOID = .861338 au 
 Jupiter MOID = 2.80204 au 
 T_jup = 3.598 
[ show covariance matrix ]

Ephemeris | Orbit Diagram | Orbital Elements | Mission Design | Physical Parameters | Discovery Circumstances ]

Physical Parameter Table
Parameter Symbol Value Units Sigma Reference Notes
absolute magnitude H 15.2   n/a MPO324480  
diameter diameter 2.153 km 0.329 urn:nasa:pds:neowise_diameters_albedos::2.0[mainbelt] (http://adsabs.harvard.edu/abs/2011ApJ...741...68M)  
geometric albedo albedo 0.381   0.148 urn:nasa:pds:neowise_diameters_albedos::2.0[mainbelt] (http://adsabs.harvard.edu/abs/2011ApJ...741...68M)  

18572 Rocher           Discovered 1997 Nov. 28 by the OCA-DLR Asteroid Survey at Caussols.
Patrick Rocher (b. 1951) works at the Institut de Mécanique Céleste in Paris. His main task has been to to build an integration package to compute orbital parameters for minor planets and comets. He is also involved in the computation of ephemerides for the Bureau des Longitudes and is a specialist on historical calendars.
NOTE: some special characters may not display properly (any characters within {} are an attempt to place the proper accent above a character)
Reference: 20020427/MPCPages.arcLast Updated: 2003-10-02

Alternate Designations
 1997 WQ22 = 1993 TE13 
Ephemeris | Orbit Diagram | Orbital Elements | Mission Design | Physical Parameters | Discovery Circumstances ]
ABOUT SSD CREDITS/AWARDS PRIVACY/COPYRIGHT GLOSSARY LINKS
FirstGov
(server date/time)  
NASA Home Page
Site Manager:   Ryan S. Park
Webmaster  Alan B. Chamberlin